Flag for Luxembourg Weather past 2 weeks in Luxembourg, Luxembourg

Now
63 °F

Scattered clouds.


Feels Like: 63 °F
Forecast: 51 / 59 °F
Wind: 6 mph from West

Location: Luxembourg Airport

Current Time: Sep 21, 2014 at 12:26:35 PM

Latest Report: Sep 21, 2014 at 11:50 AM


Visibility: 5 mi

Pressure: 30.01 "Hg

Humidity: 83%

Dew point: 57 °F

Location of LuxembourgLocation

Historic Weather in Luxembourg — Graph

°F

Luxembourg temperature yesterday

Maximum temperature yesterday: 73 °F (at 3:20 PM)
Minimum temperature yesterday: 59 °F (at 3:50 AM)
Average temperature yesterday: 64 °F

Past Weeks' High & Low Weather Summary

 TemperatureHumidityPressure
High77 °F (Sep 18, 3:50 PM)100% (Sep 7, 6:20 AM)30.21 "Hg (Sep 7, 6:20 AM)
Low48 °F (Sep 12, 6:20 AM)43% (Sep 12, 4:20 PM)29.83 "Hg (Sep 18, 5:50 AM)
Average62 °F78%30.02 "Hg
* Reported Sep 6 11:20 AM — Sep 21 11:20 AM, Luxembourg, Weather by CustomWeather, © 2014

Note: Actual official high and low records may vary slightly from our data, if they occured in-between our weather recording intervals... More about our weather records

Advertising

Luxembourg weather history for previous 24 hours

 ConditionsComfort  
Time TempWeatherWind HumidityBarometerVisibility
11:20 AM
Sep 21
63 °FPartly sunny.6 mph83%30.01 "Hg5 mi
10:50 AM63 °FBroken clouds.6 mph88%30.01 "Hg5 mi
10:20 AM63 °FPartly sunny.5 mph88%30.01 "Hg4 mi
9:50 AM59 °FScattered clouds.5 mph100%30.01 "Hg4 mi
9:20 AM59 °FScattered clouds.6 mph94%30.01 "Hg4 mi
8:50 AM57 °FPartly sunny.7 mph100%30.01 "Hg2 mi
8:20 AM57 °FFog.6 mph94%30.01 "Hg1 mi
7:50 AM57 °FPassing clouds.5 mph94%30.01 "Hg4 mi
7:20 AM57 °FClear.3 mph94%30.01 "Hg5 mi
6:50 AM57 °FPassing clouds.6 mph94%30.01 "HgN/A
6:20 AM57 °FPassing clouds.6 mph94%29.98 "HgN/A
5:50 AM57 °FPassing clouds.7 mph94%29.98 "HgN/A
4:50 AM57 °FClear.6 mph94%30.01 "HgN/A
4:20 AM57 °FCool.6 mph94%30.01 "Hg6 mi
3:50 AM57 °FCool.5 mph94%30.01 "Hg4 mi
3:20 AM57 °FCool.5 mph100%30.01 "Hg5 mi
2:50 AM57 °FCool.3 mph100%30.01 "HgN/A
2:20 AM59 °FCool.2 mph94%30.01 "Hg3 mi
1:50 AM59 °FPassing clouds.2 mph94%30.01 "HgN/A
1:20 AM59 °FPassing clouds.No wind94%30.01 "HgN/A
12:50 AM59 °FPassing clouds.3 mph94%30.01 "HgN/A
12:20 AM59 °FSprinkles. Passing clouds.5 mph94%30.01 "HgN/A
11:50 PM
Sep 20
59 °FRain showers. Partly cloudy.8 mph94%30.01 "HgN/A
11:20 PM61 °FThunderstorms. Partly cloudy.12 mph88%30.01 "HgN/A
10:50 PM63 °FThunderstorms. Partly cloudy.13 mph88%30.01 "Hg4 mi
10:20 PM66 °FPassing clouds.No wind78%30.01 "HgN/A
9:50 PM66 °FPassing clouds.3 mph78%30.01 "HgN/A
9:20 PM66 °FPassing clouds.3 mph78%30.01 "HgN/A
8:50 PM66 °FPassing clouds.3 mph78%30.01 "HgN/A
8:20 PM68 °FPassing clouds.5 mph73%29.98 "HgN/A
7:50 PM70 °FPassing clouds.6 mph69%29.98 "HgN/A
3:20 PM73 °FPassing clouds.9 mph57%29.98 "HgN/A
2:50 PM72 °FPassing clouds.3 mph69%30.01 "HgN/A
2:20 PM72 °FPassing clouds.7 mph69%30.01 "HgN/A
1:50 PM72 °FPassing clouds.7 mph69%30.01 "HgN/A
1:20 PM72 °FPassing clouds.5 mph69%30.01 "HgN/A
12:50 PM70 °FScattered clouds.6 mph73%30.01 "HgN/A
12:20 PM68 °FPassing clouds.5 mph73%30.01 "HgN/A
Weather by CustomWeather, © 2014

See weather overviewHow to use our weather pages